Weather History for Holloman AFB, NM

Change the Weather History Date:

Tuesday, August 21, 2012

  Actual Average Record
Temperature  
Mean Temperature 84 °F -  
Max Temperature 95 °F 90 °F 102 °F (2007)
Min Temperature 74 °F 63 °F 64 °F (1998)
Cooling Degree Days 18    
Growing Degree Days 34 (Base 50)    
Moisture  
Dew Point 53 °F    
Average Humidity 37    
Maximum Humidity 53    
Minimum Humidity 22    
Precipitation  
Precipitation 0.00 in - - ()
Sea Level Pressure  
Sea Level Pressure 29.77 in    
Wind  
Wind Speed 7 mph (NE)    
Max Wind Speed 14 mph    
Max Gust Speed 22 mph    
Visibility 10 miles    
Events Thunderstorm    
Averages and records for this station are not official NWS values.
T = Trace of Precipitation, MM = Missing Value Source: NWS Daily Summary

Daily Weather History Graph

Daily Weather History Graph

Search for Another Location

Airport:

Trip Planner

Search our weather history database for the weather conditions in past years. The results will help you decide how hot, cold, wet, or windy it might be!

Date:

Astronomy

Aug. 21, 2012 Rise Set
Actual Time 6:32 AM MDT 7:42 PM MDT
Civil Twilight 6:06 AM MDT 8:07 PM MDT
Nautical Twilight 5:35 AM MDT 8:38 PM MDT
Astronomical Twilight 5:04 AM MDT 9:09 PM MDT
Moon 10:46 AM MDT (8/21) 10:04 PM MDT (8/21)
Length of Visible Light 14h 01m
Length of Day
13h 09m
Waxing Crescent, 20% of the Moon is Illuminated
Aug 21
Waxing Crescent
Aug 24
First Quarter
Aug 31
Full
Sep 8
Last Quarter
Sep 15
New

Hourly Weather History & Observations

Time (MDT) Temp. Heat Index Dew Point Humidity Pressure Visibility Wind Dir Wind Speed Gust Speed Precip Events Conditions
12:55 AM 81.1 °F 80.8 °F 54.7 °F 40% 29.78 in 10.0 mi North 10.4 mph 16.1 mph N/A   Mostly Cloudy
1:55 AM 80.4 °F 80.4 °F 55.0 °F 42% 29.78 in 10.0 mi NNE 8.1 mph - N/A   Overcast
1:57 AM 80.6 °F 80.5 °F 55.4 °F 42% 29.78 in 10.0 mi NNE 9.2 mph - N/A   Light Drizzle
2:46 AM 77.0 °F - 57.2 °F 50% 29.76 in 10.0 mi ENE 12.7 mph - N/A   Scattered Clouds
2:55 AM 77.9 °F - 57.4 °F 49% 29.76 in 10.0 mi ENE 9.2 mph - 0.00 in   Mostly Cloudy
3:03 AM 78.8 °F - 57.2 °F 47% 29.76 in 10.0 mi ENE 10.4 mph - N/A   Light Drizzle
3:12 AM 77.0 °F - 57.2 °F 50% 29.76 in 10.0 mi ENE 9.2 mph - N/A   Mostly Cloudy
3:55 AM 78.1 °F - 55.8 °F 46% 29.75 in 10.0 mi East 9.2 mph - 0.00 in   Overcast
4:55 AM 77.7 °F - 55.2 °F 46% 29.77 in 10.0 mi Calm Calm - N/A   Overcast
5:55 AM 75.0 °F - 56.7 °F 53% 29.78 in 10.0 mi Calm Calm - N/A   Mostly Cloudy
6:55 AM 74.8 °F - 52.7 °F 46% 29.80 in 10.0 mi SE 4.6 mph - N/A   Overcast
7:55 AM 78.4 °F - 51.3 °F 39% 29.81 in 10.0 mi South 6.9 mph - N/A   Mostly Cloudy
8:55 AM 81.1 °F - 51.1 °F 35% 29.82 in 10.0 mi SSE 8.1 mph - N/A   Clear
9:55 AM 84.2 °F - 51.3 °F 32% 29.83 in 10.0 mi SSE 4.6 mph - N/A   Clear
10:55 AM 85.5 °F - 51.3 °F 31% 29.82 in 10.0 mi Variable 3.5 mph - N/A   Partly Cloudy
11:55 AM 89.6 °F - 51.3 °F 27% 29.81 in 10.0 mi NW 3.5 mph - N/A   Partly Cloudy
12:55 PM 91.6 °F - 49.3 °F 23% 29.78 in 10.0 mi Variable 6.9 mph - N/A   Clear
1:55 PM 93.0 °F - 48.7 °F 22% 29.75 in 10.0 mi Calm Calm - N/A   Clear
2:55 PM 93.6 °F - 49.5 °F 22% 29.72 in 10.0 mi Variable 3.5 mph - N/A   Clear
3:55 PM 93.7 °F - 51.3 °F 24% 29.70 in 10.0 mi West 12.7 mph - N/A   Clear
4:55 PM 93.9 °F - 50.5 °F 23% 29.70 in 10.0 mi West 5.8 mph - N/A   Clear
5:55 PM 92.7 °F - 49.3 °F 23% 29.71 in 10.0 mi WNW 4.6 mph - N/A   Clear
6:55 PM 89.6 °F 87.5 °F 54.0 °F 30% 29.72 in 10.0 mi NE 8.1 mph - N/A   Clear
7:55 PM 87.3 °F - 52.9 °F 31% 29.74 in 10.0 mi ENE 4.6 mph - N/A   Mostly Cloudy
8:47 PM 84.2 °F - 50.0 °F 30% 29.79 in 10.0 mi SW 10.4 mph - N/A Thunderstorm Overcast
8:55 PM 83.3 °F - 52.5 °F 34% 29.79 in 10.0 mi SW 13.8 mph 21.9 mph N/A Thunderstorm Mostly Cloudy
9:55 PM 81.1 °F 80.9 °F 55.4 °F 41% 29.80 in 10.0 mi West 5.8 mph - N/A   Mostly Cloudy
10:55 PM 79.2 °F - 55.8 °F 44% 29.81 in 10.0 mi Calm Calm - N/A   Scattered Clouds
11:55 PM 78.6 °F - 57.2 °F 48% 29.80 in 10.0 mi Calm Calm - N/A   Overcast